This is the latest recevied weather packets stored in our database for station/object KJ4RDP-13. If no packets are shown the sender has not sent any weather packets the latest 10 day(s).
| Time | Temp. | Humidity | Pressure | Rain* | Wind** | Luminosity | Snow |
|---|---|---|---|---|---|---|---|
| 1777840971 | 18.33° C | 41% | 1015.7 hPa | 0 mm | - | 511 W/m² | - |
| 1777840668 | 17.78° C | 43% | 1015.7 hPa | 0 mm | - | 528 W/m² | - |
| 1777840366 | 18.33° C | 42% | 1016 hPa | 0 mm | - | 538 W/m² | - |
| 1777840063 | 18.89° C | 43% | 1016 hPa | 0 mm | - | 554 W/m² | - |
| 1777839760 | 18.89° C | 39% | 1016 hPa | 0 mm | - | 561 W/m² | - |
| 1777839458 | 18.33° C | 41% | 1016.4 hPa | 0 mm | - | 569 W/m² | - |
| 1777839150 | 18.33° C | 40% | 1016.4 hPa | 0 mm | - | 561 W/m² | - |
| 1777838846 | 18.33° C | 38% | 1016.4 hPa | 0 mm | - | 532 W/m² | - |
| 1777838542 | 17.78° C | 41% | 1016.4 hPa | 0 mm | - | 593 W/m² | - |
| 1777838239 | 17.78° C | 40% | 1016.4 hPa | 0 mm | - | 599 W/m² | - |
| 1777837936 | 17.78° C | 41% | 1016.4 hPa | 0 mm | - | 608 W/m² | - |
| 1777837633 | 17.78° C | 40% | 1016.7 hPa | 0 mm | - | 625 W/m² | - |
| 1777837329 | 17.78° C | 39% | 1016.7 hPa | 0 mm | - | 632 W/m² | - |
| 1777837026 | 17.22° C | 41% | 1016.7 hPa | 0 mm | - | 639 W/m² | - |
| 1777836722 | 16.67° C | 40% | 1016.7 hPa | 0 mm | - | 633 W/m² | - |
| 1777836417 | 17.78° C | 39% | 1017.1 hPa | 0 mm | - | 647 W/m² | - |
| 1777836113 | 17.78° C | 40% | 1016.7 hPa | 0 mm | - | 658 W/m² | - |
| 1777835810 | 17.22° C | 40% | 1017.1 hPa | 0 mm | - | 663 W/m² | - |
| 1777835507 | 17.22° C | 42% | 1017.1 hPa | 0 mm | - | 664 W/m² | - |
| 1777835203 | 17.22° C | 43% | 1017.1 hPa | 0 mm | - | 669 W/m² | - |
| 1777834901 | 16.67° C | 43% | 1017.1 hPa | 0 mm | - | 668 W/m² | - |
| 1777834597 | 17.22° C | 38% | 1017.1 hPa | 0 mm | - | 672 W/m² | - |
| 1777834292 | 17.78° C | 38% | 1017.5 hPa | 0 mm | - | 683 W/m² | - |
| 1777833988 | 16.67° C | 44% | 1017.5 hPa | 0 mm | - | 693 W/m² | - |
| 1777833684 | 15.56° C | 39% | 1017.5 hPa | 0 mm | - | 691 W/m² | - |
* Rain latest hour (hover to see other rain measurements)
** Current wind speed in m/s (hover to see current wind gust speed)